Weather History for Valentine, NE

Change the Weather History Date:

Saturday, October 12, 2013

  Actual Average Record
Temperature  
Mean Temperature 48 °F 50 °F  
Max Temperature 60 °F 65 °F 91 °F (1995)
Min Temperature 36 °F 35 °F 10 °F (1909)
Degree Days  
Heating Degree Days 17 15  
Month to date heating degree days 157 156  
Since 1 July heating degree days 223 341  
Cooling Degree Days 0 0  
Month to date cooling degree days 0 1  
Year to date cooling degree days 964 818  
Moisture  
Dew Point 32 °F    
Average Humidity 58    
Maximum Humidity 85    
Minimum Humidity 30    
Precipitation  
Precipitation 0.00 in 0.04 in 1.92 in (1997)
Month to date precipitation 2.78 0.57  
Year to date precipitation 21.97 18.32  
Snow  
Snow 0.00 in 0.10 in 1.80 in (1969)
Month to date snowfall 0.0 0.4  
Since 1 July snowfall 0.0 1.1  
Since 1 September snowfall 0.0 1.1  
Snow Depth -    
Sea Level Pressure  
Sea Level Pressure 30.16 in    
Wind  
Wind Speed 9 mph (WNW)    
Max Wind Speed 21 mph    
Max Gust Speed 25 mph    
Visibility 10 miles    
Events      
T = Trace of Precipitation, MM = Missing Value Source: NWS Daily Summary

Daily Weather History Graph

Daily Weather History Graph

Search for Another Location

Airport:

Trip Planner

Search our weather history database for the weather conditions in past years. The results will help you decide how hot, cold, wet, or windy it might be!

Date:

Astronomy

Oct. 12, 2013 Rise Set
Actual Time 7:52 AM CDT 7:04 PM CDT
Civil Twilight 7:23 AM CDT 7:32 PM CDT
Nautical Twilight 6:51 AM CDT 8:05 PM CDT
Astronomical Twilight 6:18 AM CDT 8:38 PM CDT
Moon 3:23 PM CDT (10/12) 12:48 AM CDT (10/12)
Length of Visible Light 12h 08m
Length of Day
11h 11m
First Quarter, 59% of the Moon is Illuminated
Oct 12
First Quarter
Oct 18
Full
Oct 26
Last Quarter
Nov 3
New
Nov 9
First Quarter

Hourly Weather History & Observations

Time (CDT) Temp. Windchill Dew Point Humidity Pressure Visibility Wind Dir Wind Speed Gust Speed Precip Events Conditions
12:52 AM 45.0 °F 39.3 °F 35.1 °F 68% 29.99 in 10.0 mi WNW 11.5 mph - N/A   Clear
1:52 AM 43.0 °F 36.8 °F 34.0 °F 71% 30.01 in 10.0 mi West 11.5 mph - N/A   Clear
2:52 AM 41.0 °F 34.3 °F 35.1 °F 79% 30.05 in 10.0 mi WSW 11.5 mph - N/A   Clear
3:52 AM 37.0 °F 31.6 °F 34.0 °F 89% 30.07 in 10.0 mi WSW 6.9 mph - N/A   Clear
4:52 AM 37.9 °F 32.7 °F 34.0 °F 86% 30.09 in 10.0 mi West 6.9 mph - N/A   Clear
5:52 AM 37.0 °F 30.4 °F 34.0 °F 89% 30.10 in 10.0 mi West 9.2 mph - N/A   Clear
6:52 AM 37.9 °F 30.0 °F 33.1 °F 83% 30.12 in 10.0 mi West 12.7 mph - N/A   Clear
7:52 AM 37.0 °F 29.8 °F 33.1 °F 86% 30.15 in 10.0 mi West 10.4 mph - N/A   Clear
8:52 AM 39.0 °F 32.3 °F 34.0 °F 82% 30.17 in 10.0 mi West 10.4 mph - N/A   Clear
9:52 AM 46.0 °F 41.4 °F 34.0 °F 63% 30.19 in 10.0 mi West 9.2 mph - N/A   Clear
10:52 AM 51.1 °F - 30.9 °F 46% 30.20 in 10.0 mi WNW 16.1 mph 20.7 mph N/A   Clear
11:52 AM 54.0 °F - 28.0 °F 37% 30.19 in 10.0 mi WNW 17.3 mph 24.2 mph N/A   Clear
12:52 PM 55.0 °F - 28.0 °F 35% 30.21 in 10.0 mi WNW 15.0 mph 21.9 mph N/A   Clear
1:52 PM 55.9 °F - 28.0 °F 34% 30.20 in 10.0 mi WNW 8.1 mph 21.9 mph N/A   Clear
2:52 PM 59.0 °F - 28.0 °F 31% 30.19 in 10.0 mi WNW 15.0 mph 21.9 mph N/A   Clear
3:52 PM 57.9 °F - 27.0 °F 31% 30.19 in 10.0 mi WNW 11.5 mph - N/A   Clear
4:52 PM 59.0 °F - 28.0 °F 31% 30.19 in 10.0 mi West 6.9 mph - N/A   Clear
5:52 PM 55.9 °F - 28.0 °F 34% 30.19 in 10.0 mi NW 5.8 mph - N/A   Clear
6:52 PM 54.0 °F - 30.9 °F 41% 30.22 in 10.0 mi NNE 4.6 mph - N/A   Clear
7:52 PM 48.0 °F - 33.1 °F 56% 30.24 in 10.0 mi NE 5.8 mph - N/A   Clear
8:52 PM 44.1 °F 40.8 °F 32.0 °F 63% 30.26 in 10.0 mi East 5.8 mph - N/A   Clear
9:52 PM 42.1 °F 39.2 °F 32.0 °F 67% 30.27 in 10.0 mi ENE 4.6 mph - N/A   Clear
10:52 PM 41.0 °F 39.0 °F 32.0 °F 70% 30.29 in 10.0 mi East 3.5 mph - N/A   Clear
11:52 PM 37.9 °F 35.5 °F 32.0 °F 79% 30.30 in 10.0 mi ENE 3.5 mph - N/A   Clear